Вернуться в каталог

TANSUO 1

АктивенНаукаPO
NORAD 28220·PAYLOAD·🇨🇳 China

Запущен Apr 18, 2004 с Xichang Satellite Launch Center

Loading…

Ближайшие Пролёты (ближайшие 24 часа)

TLE

СвежийSource: Space-Track

Эпоха: Sep 14, 2026, 05:46 UTC

1 28220U 04012A   26257.24093774  .00011123  00000-0  32106-3 0  9992
2 28220  97.8639 341.2122 0006311  70.7733 289.4191 15.35854611224754

Отслеживайте TANSUO 1 в реальном времени с AllMySat

Download on the App Store